Location: San Antonio
(29.4240°N, 98.4930°W)
Time: 06:49:06
(UTC-05:00)

Explorer 11/Cluster Stage 4 - Visible Passes

Search period start: 19 July 2024 00:00
Search period end: 29 July 2024 00:00
Orbit: 465 x 1215 km, 28.8° (Epoch: 18 July)

Date Brightness Start Highest point End Pass type
(mag) Time Alt. Az. Time Alt. Az. Time Alt. Az.
21 Jul 8.8 06:17:54 10° SSW 06:21:58 17° SSE 06:25:36 10° ESE visible
22 Jul 8.7 05:59:04 10° SSW 06:03:50 19° SSE 06:08:05 10° ESE visible
23 Jul 8.6 05:40:31 11° SSW 05:45:39 22° SSE 05:50:26 10° ESE visible
24 Jul 8.5 05:23:23 16° SSW 05:27:25 25° SSE 05:32:39 10° ESE visible
25 Jul 8.4 05:06:11 21° S 05:09:09 28° SSE 05:14:48 10° E visible
26 Jul 8.3 04:48:55 27° S 04:50:49 30° SSE 04:56:50 10° E visible
27 Jul 8.2 04:31:36 32° SSE 04:32:26 33° SSE 04:38:47 10° E visible
27 Jul 7.4 06:13:18 10° WSW 06:20:53 65° SSE 06:27:20 10° E visible
28 Jul 8.1 04:14:14 36° SSE 04:14:14 36° SSE 04:20:41 10° E visible
28 Jul 7.4 05:55:51 15° WSW 06:02:32 68° SSE 06:09:15 10° E visible
